Location: Wingville
(42.9917°N, 90.4915°W)
Time: 23:48:47
(UTC+00:00)

EO-79 - Pass Details

Date: 30 June 2022
Orbit: 588 x 603 km, 98.0° (Epoch: 18 August)

Event Time Altitude Azimuth Distance (km) Brightness Sun altitude
Rises 07:14:10 0° 21° (NNE) 2,854 ? -22.0°
Reaches altitude 10° 07:16:28 10° 29° (NNE) 1,950 ? -21.9°
Maximum altitude 07:20:26 38° 98° (E) 928 ? -21.6°
Enters shadow 07:21:22 33° 128° (SE) 1,012 ? -21.6°
